Weather History for KLJF - January, 2014

Change the Weather History Date:

Saturday, January 4, 2014

  Actual Average Record
Temperature  
Mean Temperature 15 °F -  
Max Temperature 35 °F 18 °F 42 °F (2001)
Min Temperature -5 °F 0 °F -26 °F (1968)
Degree Days  
Heating Degree Days 50    
Moisture  
Dew Point 5 °F    
Average Humidity 79    
Maximum Humidity 100    
Minimum Humidity 62    
Precipitation  
Precipitation 0.00 in - - ()
Sea Level Pressure  
Sea Level Pressure 29.92 in    
Wind  
Wind Speed 14 mph (NW)    
Max Wind Speed 24 mph    
Max Gust Speed 34 mph    
Visibility 10 miles    
Events      
Averages and records for this station are not official NWS values.
T = Trace of Precipitation, MM = Missing Value Source: NWS Daily Summary

Daily Weather History Graph

Daily Weather History Graph

Search for Another Location

Airport or City:

Trip Planner

Search our weather history database for the weather conditions in past years. The results will help you decide how hot, cold, wet, or windy it might be!

Date:

Astronomy

Jan. 04, 2014 Rise Set
Actual Time 7:56 AM CST 4:49 PM CST
Civil Twilight 7:23 AM CST 5:23 PM CST
Nautical Twilight 6:46 AM CST 6:00 PM CST
Astronomical Twilight 6:10 AM CST 6:36 PM CST
Moon 9:51 AM CST (1/4) 9:23 PM CST (1/4)
Length of Visible Light 10h 00m
Length of Day
8h 53m
Waxing Crescent, 15% of the Moon is Illuminated
Jan 4
Waxing Crescent
Jan 7
First Quarter
Jan 15
Full
Jan 23
Last Quarter
Jan 30
New

Hourly Weather History & Observations

Time (CST) Temp. Windchill Dew Point Humidity Pressure Visibility Wind Dir Wind Speed Gust Speed Precip Events Conditions
12:12 AM 33.8 °F 27.7 °F 33.8 °F 100% 29.38 in 7.0 mi SSW 6.9 mph - N/A   Mostly Cloudy
12:33 AM 33.8 °F 27.7 °F 33.8 °F 100% 29.39 in 7.0 mi SW 6.9 mph - N/A   Mostly Cloudy
12:53 AM 33.8 °F 27.7 °F 33.8 °F 100% 29.38 in 10.0 mi WSW 6.9 mph - N/A   Overcast
1:12 AM 35.6 °F 30.7 °F 33.8 °F 93% 29.38 in 10.0 mi WSW 5.8 mph - N/A   Overcast
1:33 AM 35.6 °F 29.2 °F 33.8 °F 93% 29.41 in 10.0 mi West 8.1 mph - N/A   Overcast
1:53 AM 35.6 °F 25.9 °F 35.6 °F 100% 29.43 in 10.0 mi West 16.1 mph 21.9 mph N/A   Overcast
2:12 AM 35.6 °F 25.2 °F 35.6 °F 100% 29.44 in 10.0 mi West 18.4 mph 25.3 mph N/A   Overcast
2:33 AM 28.4 °F 15.4 °F 26.6 °F 93% 29.47 in 10.0 mi WNW 19.6 mph 28.8 mph N/A   Overcast
2:53 AM 23.0 °F 7.6 °F 19.4 °F 86% 29.50 in 7.0 mi WNW 21.9 mph 28.8 mph N/A   Mostly Cloudy
3:12 AM 21.2 °F 6.4 °F 19.4 °F 93% 29.53 in 7.0 mi WNW 18.4 mph 24.2 mph N/A   Overcast
3:33 AM 19.4 °F 5.0 °F 17.6 °F 93% 29.55 in 7.0 mi WNW 16.1 mph 23.0 mph N/A   Overcast
3:53 AM 19.4 °F 3.6 °F 17.6 °F 93% 29.56 in 10.0 mi WNW 19.6 mph 26.5 mph N/A   Overcast
4:12 AM 19.4 °F 3.6 °F 17.6 °F 93% 29.58 in 10.0 mi WNW 19.6 mph 25.3 mph N/A   Overcast
4:33 AM 19.4 °F 2.8 °F 15.8 °F 86% 29.61 in 10.0 mi WNW 21.9 mph 29.9 mph N/A   Overcast
4:52 AM 17.6 °F 0.9 °F 15.8 °F 93% 29.62 in 10.0 mi NW 20.7 mph 28.8 mph N/A   Overcast
5:13 AM 17.6 °F 0.9 °F 14.0 °F 86% 29.65 in 10.0 mi NW 20.7 mph 29.9 mph N/A   Overcast
5:33 AM 15.8 °F -2.3 °F 10.4 °F 79% 29.66 in 10.0 mi NW 23.0 mph 29.9 mph N/A   Overcast
5:52 AM 14.0 °F -4.7 °F 8.6 °F 79% 29.71 in 10.0 mi NW 23.0 mph 29.9 mph N/A   Overcast
6:13 AM 12.2 °F -6.7 °F 6.8 °F 79% 29.73 in 10.0 mi NW 21.9 mph 32.2 mph N/A   Scattered Clouds
6:33 AM 10.4 °F -9.9 °F 6.8 °F 85% 29.75 in 10.0 mi NW 24.2 mph 34.5 mph N/A   Clear
6:52 AM 10.4 °F -9.1 °F 6.8 °F 85% 29.78 in 10.0 mi NW 21.9 mph 28.8 mph N/A   Scattered Clouds
7:13 AM 10.4 °F -7.2 °F 6.8 °F 85% 29.80 in 10.0 mi NW 17.3 mph 31.1 mph N/A   Mostly Cloudy
7:33 AM 10.4 °F -9.5 °F 6.8 °F 85% 29.83 in 10.0 mi NW 23.0 mph 28.8 mph N/A   Overcast
7:52 AM 10.4 °F -8.6 °F 6.8 °F 85% 29.84 in 10.0 mi NW 20.7 mph 32.2 mph N/A   Overcast
8:13 AM 10.4 °F -9.1 °F 6.8 °F 85% 29.86 in 10.0 mi NNW 21.9 mph 27.6 mph N/A   Overcast
8:33 AM 10.4 °F -7.7 °F 6.8 °F 85% 29.88 in 10.0 mi NNW 18.4 mph 25.3 mph N/A   Overcast
8:52 AM 10.4 °F -5.4 °F 6.8 °F 85% 29.89 in 7.0 mi NW 13.8 mph 28.8 mph N/A   Overcast
9:13 AM 10.4 °F -6.0 °F 6.8 °F 85% 29.91 in 5.0 mi NW 15.0 mph - N/A   Overcast
9:33 AM 10.4 °F -6.0 °F 5.0 °F 79% 29.92 in 10.0 mi NNW 15.0 mph 23.0 mph N/A   Mostly Cloudy
9:52 AM 10.4 °F -8.2 °F 3.2 °F 73% 29.93 in 10.0 mi NNW 19.6 mph 27.6 mph N/A   Clear
10:13 AM 10.4 °F -7.7 °F 3.2 °F 73% 29.94 in 10.0 mi NNW 18.4 mph - N/A   Clear
10:32 AM 10.4 °F -8.6 °F 3.2 °F 73% 29.94 in 10.0 mi NNW 20.7 mph - N/A   Clear
10:53 AM 10.4 °F -6.6 °F 3.2 °F 73% 29.96 in 10.0 mi NNW 16.1 mph 23.0 mph N/A   Clear
11:13 AM 10.4 °F -6.6 °F 3.2 °F 73% 29.96 in 10.0 mi NNW 16.1 mph - N/A   Clear
11:33 AM 10.4 °F -6.6 °F 3.2 °F 73% 29.96 in 10.0 mi NNW 16.1 mph 20.7 mph N/A   Clear
11:52 AM 10.4 °F -6.6 °F 3.2 °F 73% 29.95 in 10.0 mi NW 16.1 mph - N/A   Clear
12:13 PM 10.4 °F -4.1 °F 3.2 °F 73% 29.98 in 10.0 mi WNW 11.5 mph 17.3 mph N/A   Clear
12:33 PM 10.4 °F -5.4 °F 3.2 °F 73% 29.99 in 10.0 mi NW 13.8 mph 19.6 mph N/A   Clear
12:52 PM 10.4 °F -4.1 °F 3.2 °F 73% 29.99 in 10.0 mi NW 11.5 mph - N/A   Clear
1:13 PM 10.4 °F -7.2 °F 1.4 °F 67% 30.00 in 10.0 mi NW 17.3 mph 23.0 mph N/A   Clear
1:33 PM 8.6 °F -8.9 °F 1.4 °F 73% 30.02 in 10.0 mi WNW 16.1 mph 19.6 mph N/A   Clear
1:52 PM 10.4 °F -6.0 °F -0.4 °F 62% 30.02 in 10.0 mi NW 15.0 mph 21.9 mph N/A   Clear
2:13 PM 8.6 °F -7.7 °F -2.2 °F 62% 30.04 in 10.0 mi NW 13.8 mph 24.2 mph N/A   Clear
2:33 PM 8.6 °F -7.0 °F -0.4 °F 67% 30.04 in 10.0 mi NW 12.7 mph 23.0 mph N/A   Clear
2:53 PM 8.6 °F -5.5 °F -2.2 °F 62% 30.05 in 10.0 mi NW 10.4 mph 21.9 mph N/A   Clear
3:13 PM 6.8 °F -11.3 °F -2.2 °F 67% 30.07 in 10.0 mi NW 16.1 mph 23.0 mph N/A   Clear
3:32 PM 6.8 °F -11.8 °F -2.2 °F 67% 30.07 in 10.0 mi NNW 17.3 mph 24.2 mph N/A   Clear
3:53 PM 6.8 °F -10.0 °F -2.2 °F 67% 30.08 in 10.0 mi NW 13.8 mph 21.9 mph N/A   Clear
4:13 PM 6.8 °F -9.3 °F -2.2 °F 67% 30.09 in 10.0 mi NW 12.7 mph 17.3 mph N/A   Clear
4:32 PM 6.8 °F -10.0 °F -2.2 °F 67% 30.10 in 10.0 mi NW 13.8 mph 24.2 mph N/A   Clear
4:53 PM 5.0 °F -11.6 °F -2.2 °F 72% 30.11 in 10.0 mi NW 12.7 mph 18.4 mph N/A   Clear
5:13 PM 3.2 °F -16.5 °F -2.2 °F 78% 30.12 in 10.0 mi NW 17.3 mph 23.0 mph N/A   Clear
5:32 PM 3.2 °F -13.9 °F -2.2 °F 78% 30.14 in 10.0 mi NW 12.7 mph 20.7 mph N/A   Clear
5:53 PM 1.4 °F -16.1 °F -4.0 °F 78% 30.14 in 10.0 mi NW 12.7 mph - N/A   Clear
6:13 PM 1.4 °F -16.1 °F -5.8 °F 72% 30.16 in 10.0 mi WNW 12.7 mph 19.6 mph N/A   Clear
6:32 PM 1.4 °F -16.1 °F -5.8 °F 72% 30.17 in 10.0 mi NW 12.7 mph 19.6 mph N/A   Clear
6:53 PM 1.4 °F -16.1 °F -5.8 °F 72% 30.17 in 10.0 mi NW 12.7 mph 19.6 mph N/A   Clear
7:12 PM -0.4 °F -17.6 °F -5.8 °F 78% 30.17 in 10.0 mi NW 11.5 mph - N/A   Clear
7:33 PM -0.4 °F -19.2 °F -5.8 °F 78% 30.18 in 10.0 mi NW 13.8 mph 20.7 mph N/A   Clear
7:53 PM -0.4 °F -19.2 °F -5.8 °F 78% 30.20 in 10.0 mi NW 13.8 mph - N/A   Clear
8:13 PM -0.4 °F -18.4 °F -5.8 °F 78% 30.21 in 10.0 mi NW 12.7 mph 17.3 mph N/A   Clear
8:32 PM -0.4 °F -18.4 °F -7.6 °F 72% 30.21 in 10.0 mi NW 12.7 mph - N/A   Clear
8:53 PM -0.4 °F -18.4 °F -7.6 °F 72% 30.21 in 10.0 mi NW 12.7 mph 16.1 mph N/A   Clear
9:13 PM -2.2 °F -18.0 °F -7.6 °F 78% 30.23 in 10.0 mi NW 9.2 mph - N/A   Clear
9:32 PM -2.2 °F -19.9 °F -7.6 °F 78% 30.23 in 10.0 mi NW 11.5 mph - N/A   Clear
9:53 PM -2.2 °F -19.9 °F -9.4 °F 71% 30.22 in 10.0 mi NW 11.5 mph - N/A   Clear
10:13 PM -2.2 °F -18.0 °F -9.4 °F 71% 30.23 in 10.0 mi NW 9.2 mph - N/A   Clear
10:32 PM -4.0 °F -19.0 °F -9.4 °F 78% 30.24 in 10.0 mi NW 8.1 mph - N/A   Clear
10:53 PM -4.0 °F -20.2 °F -9.4 °F 78% 30.25 in 10.0 mi NW 9.2 mph - N/A   Clear
11:13 PM -4.0 °F -19.0 °F -9.4 °F 78% 30.26 in 10.0 mi NW 8.1 mph - N/A   Clear
11:32 PM -5.8 °F -18.4 °F -9.4 °F 84% 30.26 in 10.0 mi NW 5.8 mph - N/A   Clear
11:53 PM -5.8 °F -16.7 °F -11.2 °F 77% 30.27 in 10.0 mi NW 4.6 mph - N/A   Clear